Regional Weather Roundup
Issued by NWS

Home | Current Version | Previous Version | Text Only | Print | Product List | Glossary Off
Versions: 1 2 3 4 5 6 7 8 9 10 11 12 13 14 15 16 17 18 19 20 21 22 23 24 25 26 27 28 29 30 31 32 33 34 35 36 37 38 39 40 41 42 43 44 45 46 47 48 49 50

000
ASUS43 KFSD 280602
RWRSD

WEATHER ROUNDUP FOR SOUTH DAKOTA
NATIONAL WEATHER SERVICE SIOUX FALLS SD
100 AM CDT WED JUN 28 2017

NOTE: "FAIR" INDICATES FEW OR NO CLOUDS BELOW 12,000 FEET WITH NO
SIGNIFICANT WEATHER AND/OR OBSTRUCTIONS TO VISIBILITY.


SDZ001>005-009-010-012>017-280700-
NORTHWEST AND NORTH CENTRAL SOUTH DAKOTA

CITY           SKY/WX    TMP DP  RH WIND       PRES   REMARKS
MOBRIDGE       MOCLDY    74  55  51 NW7       29.49S
$$

SDZ012>016-024>037-041>051-057-063-072>074-280700-
SOUTHWEST AND SOUTH CENTRAL SOUTH DAKOTA

CITY           SKY/WX    TMP DP  RH WIND       PRES   REMARKS
RAPID CTY ARPT PTCLDY    65  51  60 NW15      29.74S
PIERRE         CLOUDY    73  54  51 W21G32    29.48R
CUSTER         CLOUDY    59  41  51 CALM      29.88S
PHILIP         CLOUDY    66  58  75 W12       29.62F
PINE RIDGE     CLOUDY    57  55  93 NE3       29.75F
SPEARFISH      FAIR      61  52  72 W8        29.82R
WINNER         FAIR      73  52  47 SW17G24   29.62R
$$

SDZ004>011-016>023-039-040-280700-
NORTHEAST SOUTH DAKOTA

CITY           SKY/WX    TMP DP  RH WIND       PRES   REMARKS
ABERDEEN       CLOUDY    72  65  78 S15G22    29.46F
WATERTOWN      PTCLDY    69  61  75 SE16G23   29.54F
BROOKINGS      CLOUDY    71  63  75 S20G28    29.60F
$$

SDZ017-020-022-023-036>040-048>070-280700-
SOUTHEAST SOUTH DAKOTA

CITY           SKY/WX    TMP DP  RH WIND       PRES   REMARKS
SIOUX FALLS    TSTM      70  68  93 S10G25    29.65R FOG
HURON          CLOUDY    71  57  61 S14       29.49F
MITCHELL       CLOUDY    70  64  81 S14       29.58F
YANKTON        CLOUDY    72  69  90 NW22G28   29.66R THUNDER
$$

ABBREVIATIONS USED IN REMARKS
   TC - TEMPERATURE IN CELSIUS
  WCI - WIND CHILL INDEX
   HX - HEAT INDEX
  VSB - VISIBILITY





USA.gov is the U.S. government's official web portal to all federal, state and local government web resources and services.